KSEG Airport (Penn Valley) Information

FAA: SEG - ICAO: KSEG

KSEG Airport Location

State Pennsylvania
County Snyder
City Selinsgrove
KSEG Airport is 1 miles north of Selinsgrove, PA.
Latitude 40-49-16.4450N
Longitude 076-51-51.0200W
Elevation 463ft

KSEG Airport METARs

METAR KSEG 282253Z AUTO VRB03KT 10SM BKN049 BKN060 OVC080 24/16 A2983 RMK AO2 SLP100 T02390161
Altimeter 29.83"
Temperature 23.9°C (75.0°F)
Wind 0° at 3KT
Clouds broken at 4,900ft broken at 6,000ft overcast at 8,000ft
Visibility 10.0mi
Time observed: 2022-05-28T22:53:00Z

KSEG Airport Details

Status Operational
Activation May 1945
Ownership Public
Usage Public
Chart NEW YORK
ATC on-site No
Beacon schedule sunset-sunrise
Beacon color clear green

KSEG Airport Contacts

Owner PENN VALLEY AIRPORT AUTH
Owner address 100 AIRPORT RD, SELINSGROVE, PA 17870
Owner phone 570-374-7671
Manager JAMES WYLIE
Manager address 205 REIBOLD ROAD, REN FREW, PA 16053
Manager phone 412-789-7706

KSEG Airport (Penn Valley) Radio Frequencies

KSEG (Airport) Radio Frequencies

UNICOM 122.7
Common traffic advisory frequency (CTAF) 122.7